N0JVW-13 Weather Reports


time (UTC)temp
F
wind
direction
speed
knots
gust
knots
rain 1hr
in
rain 24hr
in
rain mn
in
humidity
%
barometer
mb
20260506202008 57 39 1.7 6.1 0.00 0.01 0.01 45 1018.2
20260506201550 57 320 0.0 4.3 0.00 0.01 0.01 47 1018.3
20260506201025 57 326 0.9 5.2 0.00 0.02 0.01 44 1018.3
20260506200502 57 35 2.6 5.2 0.00 0.02 0.01 45 1018.4
20260506200042 57 319 0.9 3.5 0.00 0.02 0.01 44 1018.4
20260506195520 57 328 0.9 3.5 0.00 0.02 0.01 44 1018.4
20260506195058 56 344 1.7 7.8 0.00 0.02 0.01 45 1018.4
20260506194535 56 329 2.6 7.8 0.00 0.02 0.01 45 1018.5
20260506194013 56 340 2.6 7.8 0.00 0.02 0.01 45 1018.5
20260506193555 56 58 1.7 7.8 0.00 0.02 0.01 47 1018.5
20260506193028 56 303 0.0 6.1 0.00 0.02 0.01 48 1018.6
20260506192503 56 352 0.9 7.8 0.00 0.02 0.01 46 1018.6
20260506192044 56 17 1.7 7.8 0.00 0.02 0.01 50 1018.7
20260506191522 56 14 2.6 7.8 0.00 0.02 0.01 50 1018.7
20260506191101 56 121 0.0 7.0 0.00 0.02 0.01 48 1018.6
20260506190539 56 26 1.7 7.0 0.00 0.02 0.01 51 1018.7
20260506190015 56 25 0.0 3.5 0.00 0.02 0.01 48 1018.8
20260506185555 56 288 0.9 4.3 0.00 0.02 0.01 47 1018.7
20260506185030 56 345 0.9 4.3 0.00 0.02 0.01 52 1018.8
20260506184508 55 337 1.7 4.3 0.00 0.02 0.01 52 1019.0
20260506184047 55 316 0.0 2.6 0.00 0.02 0.01 50 1018.9
20260506183524 55 37 0.0 4.3 0.00 0.02 0.01 52 1018.9
20260506183105 55 327 0.0 4.3 0.00 0.02 0.01 50 1018.9
20260506182539 55 38 1.7 4.3 0.00 0.02 0.01 51 1018.9
20260506182015 55 359 1.7 4.3 0.00 0.02 0.01 54 1019.0
20260506181558 55 353 0.0 4.3 0.00 0.02 0.01 53 1019.2
20260506181032 55 360 0.9 3.5 0.00 0.03 0.01 51 1019.2
20260506180509 55 339 0.9 3.5 0.00 0.03 0.01 52 1019.2
20260506180049 54 27 0.0 2.6 0.00 0.03 0.01 54 1019.3
20260506175524 54 293 0.0 2.6 0.00 0.03 0.01 52 1019.2
20260506175105 54 316 0.0 2.6 0.00 0.03 0.01 50 1019.3
20260506174542 54 23 0.0 5.2 0.00 0.03 0.01 54 1019.4
20260506174018 54 6 1.7 5.2 0.00 0.03 0.01 54 1019.4
20260506173559 54 18 0.0 5.2 0.00 0.03 0.01 54 1019.4
20260506173047 54 30 0.9 6.1 0.00 0.03 0.01 53 1019.4
20260506172510 54 342 3.5 5.2 0.00 0.03 0.01 55 1019.4
20260506172053 54 26 0.9 6.1 0.00 0.03 0.01 56 1019.4
20260506171528 54 285 0.9 7.8 0.00 0.03 0.01 54 1019.4
20260506171004 54 309 0.9 7.8 0.00 0.09 0.01 56 1019.4
20260506170546 54 357 0.9 3.5 0.00 0.09 0.01 57 1019.3
20260506170021 54 318 0.0 3.5 0.00 0.09 0.01 56 1019.1
20260506165603 54 318 0.9 5.2 0.00 0.09 0.01 57 1019.1
20260506165038 54 32 0.9 6.1 0.00 0.09 0.01 58 1019.2
20260506164514 54 342 1.7 7.8 0.00 0.09 0.01 59 1019.2
20260506164054 54 321 0.9 7.8 0.00 0.09 0.01 59 1019.2
20260506163534 54 341 0.0 4.3 0.00 0.09 0.01 61 1019.1
20260506163005 54 30 0.0 7.8 0.00 0.09 0.01 59 1019.0
20260506162547 54 328 3.5 7.8 0.00 0.09 0.01 61 1019.0
20260506162026 54 342 0.0 3.5 0.00 0.09 0.01 61 1019.0
20260506161642 54 305 0.9 7.0 0.00 0.09 0.01 60 1019.0
20260506161039 54 21 1.7 7.0 0.00 0.11 0.01 63 1019.0
20260506160516 54 34 0.9 7.8 0.00 0.11 0.01 66 1018.9
20260506160101 53 325 2.6 7.8 0.00 0.11 0.01 69 1018.9
20260506155529 53 355 3.5 6.1 0.00 0.11 0.01 69 1018.8
20260506155006 53 13 0.9 6.1 0.00 0.11 0.01 73 1018.7
20260506154550 53 20 1.7 6.1 0.00 0.11 0.01 72 1018.8
20260506154022 53 351 0.0 4.3 0.00 0.11 0.01 73 1018.6
20260506153601 53 330 0.9 5.2 0.00 0.11 0.01 75 1018.6
20260506153043 53 316 0.9 7.0 0.00 0.11 0.01 75 1018.6
20260506152513 53 352 1.7 7.0 0.00 0.11 0.01 76 1018.6
20260506152054 53 47 1.7 6.1 0.00 0.11 0.01 76 1018.7
20260506151531 52 15 1.7 4.3 0.00 0.11 0.01 74 1018.7
20260506151006 52 300 0.9 2.6 0.00 0.16 0.01 71 1018.7
20260506150551 52 290 0.0 5.2 0.00 0.16 0.01 69 1018.9
20260506150022 52 288 0.0 5.2 0.00 0.16 0.01 64 1018.8
20260506145603 52 333 1.7 4.3 0.00 0.16 0.01 35 1018.8
20260506145038 51 307 0.0 6.1 0.00 0.16 0.01 30 1018.8
20260506144514 51 11 0.0 6.1 0.00 0.16 0.01 12 1018.8
20260506144055 50 338 0.9 3.5 0.00 0.16 0.01 1 1018.7
20260506143531 50 38 0.9 3.5 0.00 0.16 0.01 1 1018.7
20260506143012 50 27 0.9 2.6 0.00 0.16 0.01 1 1018.8
20260506142548 49 33 0.0 2.6 0.00 0.16 0.01 1 1018.7
20260506142023 49 336 0.0 2.6 0.00 0.16 0.01 1 1018.7
20260506141604 49 271 0.0 2.6 0.00 0.16 0.01 1 1018.5
20260506141038 49 312 0.0 2.6 0.00 0.20 0.01 1 1018.5
20260506140515 48 13 0.0 2.6 0.00 0.20 0.01 1 1018.5
20260506140056 48 321 0.0 4.3 0.00 0.20 0.01 1 1018.4
20260506135531 47 20 0.9 4.3 0.00 0.20 0.01 1 1018.1
20260506135008 48 322 0.0 0.9 0.00 0.20 0.01 1 1018.2
20260506134548 47 322 0.0 0.9 0.00 0.20 0.01 1 1018.1
20260506134024 47 296 0.0 0.9 0.00 0.20 0.01 1 1018.1
20260506133602 47 44 0.0 0.9 0.00 0.20 0.01 1 1018.2
20260506133039 47 295 0.0 2.6 0.00 0.20 0.01 1 1017.9
20260506132517 47 32 0.9 2.6 0.00 0.20 0.01 1 1017.8
20260506132053 47 345 0.0 0.9 0.00 0.20 0.01 1 1017.8
20260506131532 47 345 0.0 0.0 0.00 0.20 0.01 1 1017.7
20260506131003 46 345 0.0 0.9 0.00 0.21 0.01 1 1017.8
20260506130543 47 345 0.0 0.9 0.00 0.21 0.01 1 1017.6
20260506130019 47 345 0.0 0.0 0.00 0.21 0.01 1 1017.5
20260506125559 46 345 0.0 0.0 0.00 0.21 0.01 1 1017.5
20260506125038 46 345 0.0 0.0 0.00 0.21 0.01 1 1017.5
20260506124511 46 345 0.0 0.0 0.00 0.21 0.01 1 1017.6
20260506124054 46 345 0.0 0.0 0.00 0.21 0.01 1 1017.6
20260506123529 46 345 0.0 0.0 0.00 0.21 0.01 1 1017.5
20260506123006 46 345 0.0 0.0 0.00 0.21 0.01 1 1017.3
20260506122550 46 345 0.0 0.0 0.00 0.21 0.01 1 1017.1
20260506122024 46 345 0.0 0.0 0.00 0.21 0.01 1 1017.0
20260506121605 45 345 0.0 0.0 0.00 0.21 0.01 1 1016.8
20260506121040 45 345 0.0 0.0 0.00 0.21 0.01 1 1016.8
20260506120517 45 345 0.0 0.0 0.00 0.21 0.01 1 1016.6
20260506120107 45 345 0.0 0.0 0.00 0.21 0.01 1 1016.7
20260506115533 45 345 0.0 0.0 0.00 0.21 0.01 1 1016.6
20260506115012 45 345 0.0 0.0 0.00 0.21 0.01 1 1016.5
20260506114551 45 345 0.0 0.0 0.00 0.21 0.01 1 1016.3
20260506114027 45 345 0.0 0.0 0.00 0.21 0.01 1 1016.2
20260506113504 45 345 0.0 0.0 0.00 0.21 0.01 1 1016.3
20260506113052 45 345 0.0 0.0 0.00 0.21 0.01 1 1016.5
20260506112520 45 345 0.0 0.0 0.00 0.21 0.01 1 1016.6
20260506112101 45 345 0.0 0.0 0.00 0.21 0.01 1 1016.4
20260506111536 45 345 0.0 0.0 0.00 0.21 0.01 1 1016.8
20260506111012 45 345 0.0 0.0 0.00 0.21 0.01 1 1016.9
20260506110554 45 345 0.0 0.0 0.00 0.21 0.01 1 1016.8
20260506110031 45 345 0.0 0.0 0.00 0.21 0.01 1 1016.8
20260506105506 45 345 0.0 0.0 0.00 0.21 0.01 1 1016.9
20260506105050 45 345 0.0 0.0 0.00 0.21 0.01 1 1017.1
20260506104527 45 345 0.0 0.0 0.00 0.21 0.01 1 1016.8
20260506104104 45 345 0.0 0.0 0.00 0.21 0.01 1 1016.7
20260506103540 45 345 0.0 0.0 0.00 0.21 0.01 1 1017.2
20260506103015 45 345 0.0 0.9 0.00 0.21 0.01 1 1016.8
20260506102559 45 345 0.0 0.9 0.00 0.21 0.01 1 1016.8
20260506102032 45 345 0.0 0.0 0.00 0.21 0.01 1 1016.4
20260506101520 45 345 0.0 0.0 0.00 0.21 0.01 1 1016.0
20260506101049 45 345 0.0 0.0 0.00 0.21 0.01 1 1015.7
20260506100525 45 345 0.0 0.0 0.00 0.21 0.01 1 1015.5
20260506100001 45 345 0.0 0.0 0.00 0.21 0.01 1 1015.3
20260506095542 45 345 0.0 0.0 0.00 0.21 0.01 1 1015.4
20260506095022 45 345 0.0 0.0 0.00 0.21 0.01 1 1015.4
20260506094559 45 345 0.0 0.0 0.00 0.21 0.01 1 1015.4
20260506094033 45 345 0.0 0.0 0.00 0.21 0.01 1 1015.3
20260506093508 45 345 0.0 0.0 0.00 0.21 0.01 1 1015.2
20260506093051 45 345 0.0 0.0 0.00 0.21 0.01 1 1015.3
20260506092526 45 345 0.0 0.0 0.00 0.21 0.01 1 1015.5
20260506092001 45 345 0.0 0.0 0.00 0.21 0.01 1 1015.4
20260506091540 45 345 0.0 0.0 0.00 0.21 0.01 1 1015.5
20260506091013 45 345 0.0 0.0 0.00 0.31 0.01 1 1015.6
20260506090552 45 345 0.0 0.0 0.00 0.31 0.01 1 1015.8
20260506090028 45 345 0.0 0.0 0.00 0.31 0.01 1 1015.7
20260506085504 45 345 0.0 0.0 0.00 0.31 0.01 1 1015.6
20260506085043 45 345 0.0 0.0 0.00 0.31 0.01 1 1015.6
20260506084520 45 345 0.0 0.0 0.00 0.31 0.01 1 1015.6
20260506084100 45 345 0.0 0.0 0.00 0.31 0.01 1 1015.6
20260506083537 45 345 0.0 0.0 0.00 0.31 0.01 1 1015.5
20260506083012 45 345 0.0 0.0 0.00 0.31 0.01 1 1015.2
20260506082553 45 345 0.0 0.0 0.00 0.31 0.01 1 1015.3
20260506082033 45 345 0.0 0.0 0.00 0.31 0.01 1 1015.2
20260506081506 45 345 0.0 0.0 0.00 0.31 0.01 1 1014.9
20260506081046 45 345 0.0 0.0 0.00 0.40 0.01 1 1014.5
20260506080521 45 345 0.0 0.0 0.00 0.40 0.01 1 1014.4
20260506073507 45 345 0.0 0.0 0.01 0.40 0.01 1 1014.4
20260506073050 45 345 0.0 0.0 0.01 0.40 0.01 1 1014.6
20260506072523 45 345 0.0 0.0 0.01 0.40 0.01 1 1014.6
20260506072103 45 345 0.0 1.7 0.01 0.40 0.01 1 1014.7
20260506071539 45 345 0.0 1.7 0.01 0.40 0.01 1 1014.9
20260506071018 45 3 0.0 2.6 0.01 0.45 0.01 1 1015.4
20260506070556 45 3 0.0 2.6 0.01 0.45 0.01 1 1015.5
20260506062036 45 28 0.0 0.9 0.00 0.44 0.00 1 1015.8
20260506061512 45 321 0.0 1.7 0.00 0.44 0.00 1 1015.9
20260506061054 45 321 0.0 2.6 0.00 0.54 0.00 1 1015.8
20260506060529 45 21 0.0 2.6 0.00 0.54 0.00 1 1015.6
20260506051028 46 305 0.9 4.3 0.00 0.54 0.54 1 1015.0
20260506050503 47 25 0.9 4.3 0.00 0.54 0.54 1 1014.8
20260506045105 48 49 0.0 0.0 0.00 0.54 0.54 1 1014.2
20260506044627 48 63 0.0 0.0 0.00 0.54 0.54 1 1014.1
20260506044016 48 63 0.0 0.0 0.00 0.54 0.54 1 1014.3
20260506043557 48 63 0.0 0.0 0.00 0.54 0.54 1 1014.3
20260506043033 48 63 0.0 0.0 0.00 0.54 0.54 1 1014.1
20260506042510 48 63 0.0 0.0 0.00 0.54 0.54 1 1014.0
20260506042047 48 63 0.0 0.0 0.00 0.54 0.54 1 1013.7
20260506041524 48 63 0.0 0.0 0.00 0.54 0.54 1 1013.7
20260506041104 48 63 0.0 0.0 0.00 0.54 0.54 1 1013.8
20260506040543 48 63 0.0 0.0 0.00 0.54 0.54 1 1014.0
20260506040016 48 63 0.0 0.0 0.00 0.54 0.54 1 1013.8
20260506035556 48 63 0.0 0.0 0.00 0.54 0.54 1 1013.8
20260506035033 48 63 0.0 0.0 0.00 0.54 0.54 1 1013.8
20260506034518 48 63 0.0 0.0 0.00 0.54 0.54 1 1013.6
20260506034049 48 63 0.0 0.0 0.00 0.54 0.54 1 1013.6
20260506033523 48 7 0.0 0.0 0.00 0.54 0.54 1 1013.4
20260506033107 48 7 0.0 0.0 0.00 0.54 0.54 1 1013.5
20260506032540 48 7 0.0 0.0 0.00 0.54 0.54 1 1013.4
20260506032016 48 7 0.0 0.0 0.00 0.54 0.54 1 1013.4
20260506031603 48 7 0.0 0.0 0.00 0.54 0.54 1 1013.2
20260506031032 48 7 0.0 0.0 0.00 0.54 0.54 1 1013.2
20260506030507 48 7 0.0 0.0 0.00 0.54 0.54 1 1013.2
20260506030047 48 7 0.0 0.0 0.00 0.54 0.54 1 1013.0
20260506025523 48 7 0.0 0.0 0.00 0.54 0.54 1 1012.8
20260506025104 48 7 0.0 0.0 0.00 0.54 0.54 1 1012.8
20260506024539 48 7 0.0 0.0 0.00 0.54 0.54 1 1012.7
20260506024015 48 7 0.0 0.0 0.00 0.54 0.54 1 1012.7
20260506023555 48 7 0.0 0.0 0.00 0.54 0.54 1 1012.6
20260506023037 48 7 0.0 0.0 0.00 0.54 0.54 1 1012.5
20260506022507 48 7 0.0 0.0 0.00 0.54 0.54 1 1012.4
20260506022048 48 7 0.0 0.0 0.00 0.54 0.54 1 1012.4
20260506021522 48 7 0.0 0.0 0.00 0.54 0.54 1 1012.4
20260506021104 48 7 0.0 0.0 0.00 0.54 0.54 1 1012.3
20260506020541 48 7 0.0 0.0 0.00 0.54 0.54 1 1012.0
20260506020013 48 7 0.0 0.0 0.00 0.54 0.54 1 1012.0
20260506015555 48 7 0.0 0.0 0.00 0.54 0.54 1 1012.0
20260506015034 48 7 0.0 0.0 0.00 0.54 0.54 1 1012.0
20260506014506 48 7 0.0 0.0 0.00 0.54 0.54 1 1011.9
20260506014047 48 7 0.0 0.0 0.00 0.54 0.54 1 1012.0
20260506013523 48 7 0.0 0.0 0.00 0.54 0.54 1 1012.0
20260506013104 49 7 0.0 0.0 0.00 0.54 0.54 1 1012.0
20260506012540 49 7 0.0 0.0 0.00 0.54 0.54 1 1011.9
20260506012015 49 7 0.0 0.0 0.00 0.54 0.54 1 1011.7
20260506011617 49 7 0.0 0.0 0.00 0.54 0.54 1 1011.7
20260506011031 49 7 0.0 0.0 0.00 0.54 0.54 1 1011.7
20260506010508 49 7 0.0 0.0 0.00 0.54 0.54 1 1011.7
20260506010059 49 7 0.0 0.0 0.00 0.54 0.54 1 1011.4
20260506005526 49 7 0.0 0.0 0.00 0.54 0.54 1 1011.5
20260506005001 49 7 0.0 0.0 0.00 0.54 0.54 1 1011.7
20260506004601 49 7 0.0 0.0 0.00 0.54 0.54 1 1011.7
20260506004019 49 7 0.0 0.0 0.00 0.54 0.54 1 1011.8
20260506003559 49 7 0.0 0.0 0.00 0.54 0.54 1 1011.7
20260506003044 49 7 0.0 0.0 0.00 0.54 0.54 1 1011.3
20260506002511 49 7 0.0 0.0 0.00 0.54 0.54 1 1011.2
20260506002049 49 7 0.0 0.0 0.00 0.54 0.54 1 1011.2
20260506001524 49 7 0.0 0.0 0.00 0.54 0.54 1 1011.2
20260506001105 49 7 0.0 0.0 0.00 0.54 0.54 1 1011.2
20260506000541 49 7 0.0 0.0 0.00 0.54 0.54 1 1011.0
20260506000017 49 7 0.0 0.9 0.00 0.54 0.54 1 1010.8
20260505235557 49 7 0.0 0.9 0.00 0.54 0.54 1 1010.8
20260505235033 49 6 0.0 0.0 0.00 0.54 0.54 1 1011.1
20260505234513 49 6 0.0 0.0 0.00 0.54 0.54 1 1011.1
20260505234051 49 6 0.0 0.0 0.00 0.54 0.54 1 1011.0
20260505233532 49 6 0.0 0.0 0.00 0.54 0.54 1 1011.3
20260505233007 49 6 0.0 0.0 0.00 0.54 0.54 1 1011.5
20260505232545 49 6 0.0 0.0 0.00 0.54 0.54 1 1011.4
20260505232020 49 6 0.0 0.0 0.00 0.54 0.54 1 1011.3
20260505231601 49 6 0.0 0.0 0.00 0.54 0.54 1 1011.3
20260505231036 49 6 0.0 0.0 0.00 0.54 0.54 1 1011.3
20260505230513 49 6 0.0 0.0 0.00 0.54 0.54 1 1011.3
20260505230052 49 6 0.0 0.0 0.00 0.54 0.54 1 1011.1
20260505225529 49 6 0.0 0.0 0.00 0.54 0.54 1 1011.2
20260505225007 49 6 0.0 0.9 0.00 0.54 0.54 1 1011.2
20260505224546 49 6 0.0 0.9 0.00 0.54 0.54 1 1011.2
20260505224019 49 6 0.0 0.9 0.00 0.54 0.54 1 1011.2
20260505223600 48 6 0.0 0.9 0.00 0.54 0.54 1 1011.1
20260505223036 49 6 0.0 0.9 0.00 0.54 0.54 1 1011.2
20260505222515 49 6 0.0 0.0 0.00 0.54 0.54 1 1011.3
20260505222054 48 6 0.0 1.7 0.00 0.54 0.54 1 1011.3
20260505221530 48 6 0.0 1.7 0.00 0.54 0.54 1 1011.1
20260505221005 48 6 0.0 1.7 0.00 0.54 0.54 1 1011.2
20260505220545 48 6 0.0 1.7 0.00 0.54 0.54 1 1011.2
20260505220029 48 31 0.0 0.9 0.00 0.54 0.54 1 1011.3
20260505215605 48 31 0.0 3.5 0.00 0.54 0.54 1 1011.3
20260505215039 48 20 1.7 3.5 0.00 0.54 0.54 1 1011.0
20260505214522 48 10 0.0 1.7 0.00 0.54 0.54 1 1011.0
20260505214057 48 354 0.0 0.9 0.00 0.54 0.54 1 1011.1
20260505213532 48 354 0.0 0.9 0.00 0.54 0.54 1 1011.2
20260505213008 48 354 0.0 0.0 0.00 0.54 0.54 1 1011.1
20260505212550 48 354 0.0 0.0 0.00 0.54 0.54 1 1011.2
20260505212025 47 354 0.0 0.0 0.00 0.54 0.54 1 1011.4
20260505211502 47 354 0.0 0.0 0.00 0.54 0.54 1 1011.3
20260505211043 47 354 0.0 0.9 0.00 0.54 0.54 1 1011.3
20260505210518 48 354 0.0 0.9 0.00 0.54 0.54 1 1011.3
20260505210058 47 354 0.0 0.0 0.00 0.54 0.54 1 1011.4
20260505205534 47 354 0.0 0.0 0.00 0.54 0.54 1 1011.4
20260505205011 47 354 0.0 0.0 0.01 0.54 0.54 1 1011.2
20260505204551 47 354 0.0 0.0 0.01 0.54 0.54 1 1011.4
20260505204028 47 354 0.0 0.0 0.01 0.54 0.54 1 1011.5
20260505203504 47 354 0.0 0.0 0.01 0.54 0.54 1 1011.4
20260505203045 47 354 0.0 0.0 0.01 0.54 0.54 1 1011.4
20260505202524 47 354 0.0 0.0 0.01 0.54 0.54 1 1011.4